Location: Austin
(30.3000°N, 97.7500°W)
Time: 06:11:10
(UTC-06:00)

Spot 4 Rocket - Pass Details

Date: 03 March 2026
Orbit: 768 x 774 km, 98.8° (Epoch: 6 March)

Event Time Altitude Azimuth Distance (km) Brightness Sun altitude
Rises 18:50:54 0° 149° (SSE) 3,227 7.0 -5.0°
Reaches altitude 10° 18:53:18 10° 142° (SE) 2,302 6.2 -5.5°
Maximum altitude 18:58:03 42° 73° (ENE) 1,092 4.4 -6.6°
Drops below altitude 10° 19:02:48 10° 3° (N) 2,311 6.4 -7.6°
Sets 19:05:13 0° 357° (N) 3,240 7.3 -8.1°
